Tracking 18840 objects as of 20-November-2017
HD Live streaming from Space Station
objects crossing your sky now

COSMOS 1727

Track COSMOS 1727 now!
10-day predictions
COSMOS 1727 is classified as:


NORAD ID: 16510
Int'l Code: 1986-008A
Perigee: 963.6 km
Apogee: 1,018.5 km
Inclination: 82.9 °
Period: 104.8 minutes
Semi major axis: 7362 km
RCS: 1.5351 m2 (large)
Launch date: January 23, 1986
Source: Commonwealth of Independent States (former USSR) (CIS)
Launch site: PLESETSK MISSILE AND SPACE COMPLEX (PKMTR)
aabbcc
Your satellite tracking list
Your tracking list is empty




NASA's NSSDC Master Catalog

Two Line Element Set (TLE):
1 16510U 86008A   17323.56796796  .00000048  00000-0  35111-4 0  9993
2 16510  82.9456 128.9510 0037286 323.4581 101.0072 13.74375661595820
Source of the keplerian elements: AFSPC